Miscellaneous Local Product
Issued by NWS North Platte, NE

Home | Current Version | Previous Version | Text Only | Print | Product List | Glossary On
Versions: 1 2 3 4 5 6 7 8 9 10 11 12 13 14 15 16 17 18 19 20 21 22 23 24 25 26 27 28 29 30 31 32 33 34 35 36 37 38 39 40 41 42 43 44 45 46 47 48 49 50
000
AXUS43 KLBF 201310
MISLBF


WESTERN AND NORTH CENTRAL NEBRASKA HOURLY WEATHER ROUNDUP
NATIONAL WEATHER SERVICE NORTH PLATTE NE
800 AM CDT MON OCT 20 2014

***STATIONS NOT REPORTING VARIABLES SUCH AS SKY/WEATHER OR
PRESSURE ARE PROVIDED BY THE NEBRASKA DEPARTMENT OF
ROADS...RAWS...AND APRS NETWORKS...AND ARE NOT UNDER
NATIONAL WEATHER SERVICE QUALITY CONTROL***

...OBSERVATIONS IN AND NEAR THE EASTERN PANHANDLE OF NEBRASKA...

CITY           SKY/WX    TMP DP  RH WIND       PRES   REMARKS
PINE RIDGE     PTCLDY    35  32  88 NW6       30.07F WCI  30
CHADRON        CLEAR     32  30  92 CALM      30.06F
ALLIANCE       CLEAR     28  26  92 W7        30.11S WCI  21
SIDNEY         CLEAR     38  34  85 SW8       30.13S WCI  32
WHITECLAY        N/A     38  33  82 SE10        N/A  WCI  31
RUSHVILLE        N/A     29  28  96 SW7         N/A  WCI  22
CRESCENT LAKE    N/A     41  35  79 CALM        N/A
LISCO            N/A     35  32  88 CALM        N/A
BIG SPRINGS      N/A     36  34  91 CALM        N/A
LEWELLEN         N/A     35  33  92 CALM        N/A
$$

...OBSERVATIONS IN NORTH CENTRAL NEBRASKA...

CITY           SKY/WX    TMP DP  RH WIND       PRES   REMARKS
VALENTINE      CLEAR     31  29  92 W5        30.11S WCI  26
THEDFORD       CLEAR     37  34  91 CALM      30.12S
AINSWORTH      CLEAR     37  33  87 CALM      30.10S
O`NEILL        CLEAR     40  37  90 NW3       30.10R
ORD            CLEAR     37  35  92 NW7       30.09R WCI  32
BROKEN BOW     CLEAR     35  32  88 CALM      30.09S
BROWNLEE         N/A     49  38  65 CALM        N/A
SPRINGVIEW       N/A     34  31  90 CALM        N/A
BREWSTER         N/A     35  34  94 NW3         N/A
ROSE             N/A     49  39  68 N3          N/A
NEWPORT          N/A     36  35  96 W6          N/A  WCI  31
SARGENT          N/A     39  36  89 CALM        N/A
COMSTOCK         N/A     44  37  78 CALM        N/A
CHAMBERS         N/A     37  33  85 CALM        N/A
$$

...OBSERVATIONS IN SOUTHWEST NEBRASKA AND FAR NORTHEAST COLORADO...

CITY           SKY/WX    TMP DP  RH WIND       PRES   REMARKS
WRAY           FAIR      37  35  93 SW6       30.14S WCI  33
HOLYOKE        FAIR      37  34  87 W6        30.14R WCI  33
IMPERIAL       CLEAR     38  32  79 W5        30.13R WCI  34
OGALLALA       CLEAR     33  32  95 W3        30.12S
NORTH PLATTE   CLEAR     32  31  96 NW5       30.11S WCI  27
MCCOOK         CLEAR     38  36  92 W6        30.11R WCI  33
LEXINGTON      CLEAR     38  36  92 W6        30.10S WCI  33
PAXTON           N/A     39  35  84 CALM        N/A
SUTHERLAND       N/A     34  31  90 W5          N/A  WCI  29
BRADY            N/A     36  32  87 CALM        N/A
GOTHENBURG       N/A     41  35  77 CALM        N/A
CALLAWAY         N/A     38  35  89 N3          N/A
$$

...SOME WEATHER OBSERVATIONS FROM AROUND THE REGION...

CITY           SKY/WX    TMP DP  RH WIND       PRES   REMARKS
DENVER         PTCLDY    48  36  63 SW12      30.15F
LARAMIE        PTCLDY    34  28  79 S9        30.21S WCI  27
CHEYENNE       CLEAR     37  32  82 W9        30.17S WCI  30
SCOTTSBLUFF    PTCLDY    37  33  85 E3        30.11S
RAPID CITY     CLEAR     40  35  83 SE5       30.04F
PIERRE         PTCLDY    35  32  88 CALM      30.08R
WINNER         FAIR      43  35  73 CALM      30.09S
SIOUX FALLS    CLEAR     41  36  82 CALM      30.06S
OMAHA          CLEAR     45  42  89 N7        30.07R
GRAND ISLAND   CLEAR     40  37  89 NW7       30.09R
KANSAS CITY    PTCLDY    51  49  92 W3        30.02R
WICHITA        CLEAR     54  52  93 CALM      30.04R FOG
HAYS           CLEAR     45  37  76 NW6       30.09R
LIBERAL        CLEAR     48  43  81 NW6       30.10R
GOODLAND       CLEAR     39  36  89 W5        30.14S
$$



USA.gov is the U.S. government's official web portal to all federal, state and local government web resources and services.